sat.trackr.live / text

‹ back to catalog

STARLINK-35105

NORAD 65543 · 2025-200Z

PAYLOAD ACTIVE UNKNOWN

§ Identity

Operator
Country
US
Launch date
2025-09-06
Launch site
AFWTR
Launch vehicle
Mass (kg)
RCS (m²)

Purposes: comms

External: N2YO · Heavens-Above · Gunter

§ Orbital elements

Epoch: 2026-05-25T04:29:29.925024Z

Period
95.64 min
Inclination
97.4533°
Eccentricity
0.0001838
Mean motion
15.05639118 rev/d
Perigee alt
548.3 km
Apogee alt
550.8 km
Semi-major
6,927.7 km
B*
-2.9123e-4
RAAN
214.8679°
Arg perigee
141.9797°
Mean anomaly
218.1560°
Rev number
4,064

§ Raw data

STARLINK-351051 65543U 25200Z   26145.18715191 -.00004257  00000+0 -29123-3 0  99922 65543  97.4533 214.8679 0001838 141.9797 218.1560 15.05639118 40647

JSON: /api/v1/satellites/65543 · /tle

For live sub-satellite position, see the globe view (requires WebGL).

§ Visibility from observer

Set your observer location to see the next 7 days of passes ≥ 10°. The values pass through the URL so the page stays shareable.

No JS? Fill the form by hand. The geolocation button needs JavaScript.